COSMOS 1275 DEB, 42133

Orbit data source: Space-Track

COSMOS 1275 DEB, 42133 is space debris in LEO originally from a launch on Thu, 04 Jun 1981 UTC launched from the Plesetsk Missile And Space Complex (PKMTR). Debris objects in space refer to the collection of defunct objects orbiting the Earth. Examples of debris include non-operational satellites, rocket bodies, and fragments generated from explosions, collisions, or faulty payload assembly.

Loading next visibility...
Identifier
42133, 1981-053QV
Orbit
LEO
Country
Flag of CISCIS
Related business
Manufacturer
Unknown
Mission
Spacecraft
Bus & Motor
Unknown
Mass
Unknown
Launch date (UTC)
1981-06-04 (45 years ago)
Launch vehicle
Unknown
Launch site
Plesetsk Missile And Space Complex (PKMTR)
Object type
Payload
Rocket body
Debris
Shape & HBR
Unknown shape, 0.1 m
Radar Cross Section
Small (<0.1 m²)

Expand to show TLE details & history
Last TLE update: 3 days ago

TLE from 3 days ago
0 COSMOS 1275 DEB
1 42133U 81053QV  25353.12523551  .00001113  00000-0  13439-2 0  9990
2 42133  83.1297 137.2181 0164463 311.4884  47.2243 13.60250535 95793
Epoch: 2025-12-19T03:00Z
TLE epoch observation values (Epoch: 2025-12-19T03:00:20.348Z)
Latitude
0.00004°
Longitude
4.16244°
Altitude
955.953 km
Speed
7.414 km/s
True Right ascension
09h 08m 52s
True Declination
0° 00' 00"
Sunlit
Object was in full shadow at epoch
Visualization orbit readout
Latitude
Unknown
Longitude
Unknown
Altitude
Unknown
Speed
Unknown
Apparent Right ascension
Unknown
Apparent Declination
Unknown
Sunlit
N/A
Visualization observer readout
Local Sidereal Time
18:02:00
Azimuth
Unknown
Elevation
Unknown
Doppler factor
Unknown
Orbital elements
Apogee altitude
1,153.811 km
Perigee altitude
910.074 km
Semi-major axis
7,410.08 km
Eccentricity
0.01645
Inclination
83.1297°
RAAN
137.2181°
Arg. of periapsis
311.4884°
True anomaly
48.62707°
Mean anomaly
47.2243°
Eccentric anomaly
47.92373°
Mean motion
3.40258 °/min
Orbital period
105.8 mins
BSTAR
0.0013439
Loading maneuver chart data...
Computing Atmospheric mass density...
Loading historical data...
Loading historical data...
Loading historical data...
Loading historical data...
Loading historical data...
Loading historical data...
Loading historical data...

Documentation

Showing up to 5 results
|